sat.trackr.live / text

‹ back to catalog

STARLINK-37488

NORAD 68859 · 2026-094W

PAYLOAD ACTIVE UNKNOWN

§ Identity

Operator
Country
US
Launch date
2026-04-26
Launch site
AFWTR
Launch vehicle
Mass (kg)
RCS (m²)

Purposes: comms

External: N2YO · Heavens-Above · Gunter

§ Orbital elements

Epoch: 2026-05-25T04:00:03.998880Z

Period
92.95 min
Inclination
97.2850°
Eccentricity
0.0000778
Mean motion
15.49187617 rev/d
Perigee alt
418.6 km
Apogee alt
419.6 km
Semi-major
6,797.2 km
B*
-1.6977e-4
RAAN
159.9070°
Arg perigee
101.5380°
Mean anomaly
75.1166°
Rev number
567

§ Raw data

STARLINK-374881 68859U 26094W   26145.16671295 -.00009312  00000+0 -16977-3 0  99912 68859  97.2850 159.9070 0000778 101.5380  75.1166 15.49187617  5673

JSON: /api/v1/satellites/68859 · /tle

For live sub-satellite position, see the globe view (requires WebGL).

§ Visibility from observer

Set your observer location to see the next 7 days of passes ≥ 10°. The values pass through the URL so the page stays shareable.

No JS? Fill the form by hand. The geolocation button needs JavaScript.